| time (UTC) | temp F | wind direction | speed knots | gust knots | rain 1hr in | rain 24hr in | rain mn in | humidity % | barometer mb |
| 20260831001938 | 83 | 87 | 0.0 | 1.7 | 0.00 | 0.00 | 0.00 | 72 | 1011.3 |
| 20260831001433 | 83 | 114 | 2.6 | 2.6 | 0.00 | 0.00 | 0.00 | 71 | 1011.3 |
| 20260831000930 | 83 | 118 | 0.9 | 7.0 | 0.00 | 0.00 | 0.00 | 71 | 1011.4 |
| 20260831000426 | 84 | 112 | 1.7 | 6.1 | 0.00 | 0.00 | 0.00 | 71 | 1011.4 |
| 20260830235923 | 84 | 134 | 0.9 | 5.2 | 0.00 | 0.00 | 0.00 | 71 | 1011.2 |
| 20260830235419 | 84 | 104 | 0.9 | 1.7 | 0.00 | 0.00 | 0.00 | 71 | 1011.4 |
| 20260830234914 | 84 | 116 | 0.9 | 2.6 | 0.00 | 0.00 | 0.00 | 71 | 1011.6 |
| 20260830234409 | 84 | 148 | 1.7 | 2.6 | 0.00 | 0.00 | 0.00 | 72 | 1011.4 |
| 20260830233905 | 85 | 105 | 2.6 | 4.3 | 0.00 | 0.00 | 0.00 | 72 | 1011.4 |
| 20260830233400 | 85 | 147 | 1.7 | 6.1 | 0.00 | 0.00 | 0.00 | 72 | 1011.5 |
| 20260830232855 | 84 | 107 | 1.7 | 5.2 | 0.00 | 0.00 | 0.00 | 74 | 1011.3 |
| 20260830232351 | 84 | 180 | 3.5 | 5.2 | 0.00 | 0.00 | 0.00 | 77 | 1011.4 |
| 20260830231848 | 84 | 109 | 0.0 | 4.3 | 0.00 | 0.00 | 0.00 | 77 | 1011.4 |
| 20260830231343 | 84 | 108 | 0.0 | 5.2 | 0.00 | 0.00 | 0.00 | 77 | 1011.3 |
| 20260830230842 | 85 | 342 | 3.5 | 5.2 | 0.00 | 0.00 | 0.00 | 75 | 1011.5 |
| 20260830230337 | 85 | 205 | 1.7 | 4.3 | 0.00 | 0.00 | 0.00 | 75 | 1011.6 |
| 20260830225831 | 85 | 100 | 3.5 | 7.0 | 0.00 | 0.00 | 0.00 | 76 | 1011.5 |
| 20260830225326 | 84 | 327 | 0.0 | 0.9 | 0.00 | 0.00 | 0.00 | 76 | 1011.4 |
| 20260830224821 | 84 | 114 | 0.9 | 4.3 | 0.00 | 0.00 | 0.00 | 76 | 1011.4 |
| 20260830224315 | 84 | 303 | 0.9 | 2.6 | 0.00 | 0.00 | 0.00 | 77 | 1011.2 |
| 20260830223812 | 85 | 248 | 0.0 | 2.6 | 0.00 | 0.00 | 0.00 | 75 | 1011.1 |
| 20260830223308 | 85 | 30 | 1.7 | 5.2 | 0.00 | 0.00 | 0.00 | 76 | 1011.2 |
| 20260830222802 | 85 | 41 | 0.9 | 0.9 | 0.00 | 0.00 | 0.00 | 74 | 1011.1 |
| 20260830222257 | 84 | 171 | 0.0 | 4.3 | 0.00 | 0.00 | 0.00 | 76 | 1011.2 |
| 20260830221752 | 84 | 6 | 3.5 | 4.3 | 0.00 | 0.00 | 0.00 | 76 | 1011.1 |
| 20260830221249 | 83 | 103 | 3.5 | 6.1 | 0.00 | 0.00 | 0.00 | 77 | 1011.0 |
| 20260830220743 | 83 | 63 | 0.0 | 5.2 | 0.00 | 0.00 | 0.00 | 77 | 1011.2 |
| 20260830220243 | 84 | 6 | 3.5 | 7.0 | 0.00 | 0.00 | 0.00 | 76 | 1011.3 |
| 20260830215741 | 84 | 118 | 0.9 | 4.3 | 0.00 | 0.00 | 0.00 | 76 | 1011.2 |
| 20260830215236 | 84 | 34 | 4.3 | 5.2 | 0.00 | 0.00 | 0.00 | 74 | 1011.3 |
| 20260830214731 | 84 | 92 | 0.9 | 2.6 | 0.00 | 0.00 | 0.00 | 76 | 1011.0 |
| 20260830214226 | 83 | 160 | 1.7 | 2.6 | 0.00 | 0.00 | 0.00 | 76 | 1011.2 |
| 20260830213725 | 84 | 90 | 2.6 | 4.3 | 0.00 | 0.00 | 0.00 | 74 | 1011.4 |
| 20260830213220 | 86 | 158 | 0.9 | 1.7 | 0.00 | 0.00 | 0.00 | 73 | 1011.4 |
| 20260830212716 | 86 | 113 | 0.9 | 2.6 | 0.00 | 0.00 | 0.00 | 72 | 1011.6 |
| 20260830212211 | 85 | 51 | 2.6 | 4.3 | 0.00 | 0.00 | 0.00 | 73 | 1011.7 |
| 20260830211706 | 85 | 355 | 2.6 | 5.2 | 0.00 | 0.00 | 0.00 | 73 | 1011.6 |
| 20260830211205 | 84 | 172 | 0.0 | 7.0 | 0.00 | 0.00 | 0.00 | 74 | 1011.7 |
| 20260830210701 | 84 | 136 | 0.9 | 6.1 | 0.00 | 0.00 | 0.00 | 73 | 1011.6 |
| 20260830210200 | 85 | 184 | 0.9 | 5.2 | 0.00 | 0.00 | 0.00 | 72 | 1011.6 |
| 20260830205657 | 84 | 139 | 0.9 | 5.2 | 0.00 | 0.00 | 0.00 | 73 | 1011.7 |
| 20260830205152 | 84 | 161 | 0.9 | 1.7 | 0.00 | 0.00 | 0.00 | 75 | 1011.7 |
| 20260830204647 | 84 | 102 | 2.6 | 4.3 | 0.00 | 0.00 | 0.00 | 75 | 1011.8 |
| 20260830204145 | 84 | 109 | 1.7 | 4.3 | 0.00 | 0.00 | 0.00 | 74 | 1012.1 |
| 20260830203642 | 85 | 7 | 0.9 | 2.6 | 0.00 | 0.00 | 0.00 | 72 | 1012.0 |
| 20260830203137 | 84 | 103 | 1.7 | 2.6 | 0.00 | 0.00 | 0.00 | 73 | 1012.0 |
| 20260830202636 | 84 | 129 | 1.7 | 5.2 | 0.00 | 0.00 | 0.00 | 73 | 1012.1 |
| 20260830202132 | 85 | 132 | 2.6 | 6.1 | 0.00 | 0.00 | 0.00 | 73 | 1011.8 |
| 20260830201631 | 84 | 257 | 1.7 | 4.3 | 0.00 | 0.00 | 0.00 | 74 | 1012.0 |
| 20260830201127 | 83 | 214 | 1.7 | 9.6 | 0.00 | 0.00 | 0.00 | 77 | 1011.8 |
| 20260830200622 | 84 | 143 | 3.5 | 5.2 | 0.00 | 0.00 | 0.00 | 74 | 1011.8 |
| 20260830200121 | 84 | 319 | 0.9 | 4.3 | 0.00 | 0.00 | 0.00 | 74 | 1011.8 |
| 20260830195617 | 84 | 30 | 1.7 | 6.1 | 0.00 | 0.00 | 0.00 | 74 | 1011.7 |
| 20260830195114 | 84 | 31 | 2.6 | 7.8 | 0.00 | 0.00 | 0.00 | 74 | 1012.0 |
| 20260830194609 | 83 | 318 | 3.5 | 7.0 | 0.00 | 0.00 | 0.00 | 74 | 1012.0 |
| 20260830194108 | 84 | 153 | 0.9 | 7.8 | 0.00 | 0.00 | 0.00 | 74 | 1011.5 |
| 20260830193603 | 83 | 111 | 1.7 | 7.0 | 0.00 | 0.00 | 0.00 | 75 | 1011.8 |
| 20260830193058 | 83 | 110 | 1.7 | 6.1 | 0.00 | 0.00 | 0.00 | 75 | 1011.8 |
| 20260830192553 | 82 | 124 | 4.3 | 6.1 | 0.00 | 0.00 | 0.00 | 75 | 1011.8 |
| 20260830192053 | 83 | 109 | 0.9 | 6.1 | 0.00 | 0.00 | 0.00 | 76 | 1012.1 |
| 20260830191548 | 83 | 127 | 0.9 | 4.3 | 0.00 | 0.00 | 0.00 | 75 | 1012.2 |
| 20260830191038 | 82 | 143 | 0.9 | 1.7 | 0.00 | 0.00 | 0.00 | 77 | 1012.0 |
| 20260830190533 | 82 | 44 | 7.0 | 9.6 | 0.00 | 0.00 | 0.00 | 77 | 1012.3 |
| 20260830190028 | 82 | 176 | 0.0 | 4.3 | 0.00 | 0.00 | 0.00 | 78 | 1012.2 |
| 20260830185522 | 81 | 51 | 5.2 | 7.0 | 0.00 | 0.00 | 0.00 | 78 | 1012.5 |
| 20260830185018 | 80 | 129 | 1.7 | 4.3 | 0.00 | 0.00 | 0.00 | 80 | 1012.6 |
| 20260830184516 | 79 | 68 | 0.0 | 5.2 | 0.00 | 0.00 | 0.00 | 81 | 1012.7 |
| 20260830184005 | 79 | 153 | 2.6 | 11.3 | 0.00 | 0.00 | 0.00 | 81 | 1012.7 |
| 20260830183500 | 80 | 28 | 2.6 | 9.6 | 0.00 | 0.00 | 0.00 | 81 | 1012.7 |
| 20260830182955 | 80 | 104 | 4.3 | 7.0 | 0.00 | 0.00 | 0.00 | 81 | 1012.7 |
| 20260830182450 | 79 | 205 | 0.9 | 4.3 | 0.00 | 0.00 | 0.00 | 82 | 1012.8 |
| 20260830181946 | 79 | 115 | 2.6 | 7.0 | 0.00 | 0.00 | 0.00 | 82 | 1012.7 |
| 20260830181443 | 78 | 353 | 0.0 | 6.1 | 0.00 | 0.00 | 0.00 | 83 | 1012.9 |
| 20260830180937 | 78 | 104 | 2.6 | 7.8 | 0.00 | 0.00 | 0.00 | 83 | 1013.0 |
| 20260830180436 | 78 | 92 | 0.9 | 4.3 | 0.00 | 0.00 | 0.00 | 83 | 1013.0 |
| 20260830175935 | 78 | 117 | 1.7 | 7.0 | 0.00 | 0.00 | 0.00 | 83 | 1013.1 |
| 20260830175434 | 78 | 214 | 2.6 | 5.2 | 0.00 | 0.00 | 0.00 | 83 | 1013.1 |
| 20260830174925 | 78 | 155 | 2.6 | 2.6 | 0.00 | 0.00 | 0.00 | 83 | 1013.1 |
| 20260830174420 | 78 | 157 | 1.7 | 5.2 | 0.00 | 0.00 | 0.00 | 83 | 1013.3 |
| 20260830173915 | 78 | 101 | 7.0 | 7.8 | 0.00 | 0.00 | 0.00 | 83 | 1013.5 |
| 20260830173411 | 77 | 30 | 0.9 | 2.6 | 0.00 | 0.00 | 0.00 | 84 | 1013.5 |
| 20260830172906 | 77 | 158 | 1.7 | 4.3 | 0.00 | 0.00 | 0.00 | 84 | 1013.4 |
| 20260830172403 | 78 | 163 | 0.0 | 2.6 | 0.00 | 0.00 | 0.00 | 84 | 1013.4 |
| 20260830171858 | 78 | 135 | 1.7 | 4.3 | 0.00 | 0.00 | 0.00 | 84 | 1013.3 |
| 20260830171354 | 78 | 31 | 0.9 | 4.3 | 0.00 | 0.00 | 0.00 | 84 | 1013.1 |
| 20260830170848 | 78 | 252 | 0.9 | 1.7 | 0.00 | 0.00 | 0.00 | 84 | 1013.2 |
| 20260830170348 | 77 | 259 | 2.6 | 4.3 | 0.00 | 0.00 | 0.00 | 84 | 1013.1 |
| 20260830165846 | 77 | 101 | 0.9 | 6.1 | 0.00 | 0.00 | 0.00 | 85 | 1013.3 |
| 20260830165343 | 77 | 92 | 1.7 | 4.3 | 0.00 | 0.00 | 0.00 | 85 | 1013.3 |
| 20260830164839 | 77 | 1 | 0.0 | 4.3 | 0.00 | 0.00 | 0.00 | 85 | 1013.1 |
| 20260830164334 | 76 | 112 | 0.0 | 7.0 | 0.00 | 0.00 | 0.00 | 85 | 1013.2 |
| 20260830163831 | 76 | 262 | 2.6 | 4.3 | 0.00 | 0.00 | 0.00 | 85 | 1012.9 |
| 20260830163326 | 77 | 61 | 1.7 | 4.3 | 0.00 | 0.00 | 0.00 | 85 | 1012.8 |
| 20260830162821 | 77 | 335 | 1.7 | 5.2 | 0.00 | 0.00 | 0.00 | 84 | 1012.7 |
| 20260830162317 | 77 | 346 | 1.7 | 4.3 | 0.00 | 0.00 | 0.00 | 84 | 1012.7 |
| 20260830161812 | 77 | 134 | 0.0 | 7.0 | 0.00 | 0.00 | 0.00 | 85 | 1012.6 |
| 20260830161311 | 77 | 25 | 0.0 | 8.7 | 0.00 | 0.00 | 0.00 | 84 | 1012.7 |
| 20260830160806 | 76 | 304 | 0.0 | 1.7 | 0.00 | 0.00 | 0.00 | 86 | 1012.9 |
| 20260830160301 | 76 | 341 | 1.7 | 5.2 | 0.00 | 0.00 | 0.00 | 85 | 1012.7 |
| 20260830155757 | 76 | 12 | 0.9 | 6.1 | 0.00 | 0.00 | 0.00 | 85 | 1012.6 |
| 20260830155253 | 76 | 336 | 0.9 | 5.2 | 0.00 | 0.00 | 0.00 | 86 | 1012.6 |
| 20260830154753 | 76 | 82 | 1.7 | 5.2 | 0.00 | 0.00 | 0.00 | 86 | 1012.4 |
| 20260830154249 | 76 | 129 | 2.6 | 4.3 | 0.00 | 0.00 | 0.00 | 86 | 1012.6 |
| 20260830153746 | 76 | 315 | 3.5 | 6.1 | 0.00 | 0.00 | 0.00 | 85 | 1012.4 |
| 20260830153241 | 76 | 326 | 2.6 | 4.3 | 0.00 | 0.00 | 0.00 | 85 | 1012.4 |
| 20260830152739 | 76 | 228 | 0.9 | 2.6 | 0.00 | 0.00 | 0.00 | 85 | 1012.6 |
| 20260830152234 | 75 | 110 | 0.0 | 5.2 | 0.00 | 0.00 | 0.00 | 86 | 1012.6 |
| 20260830151733 | 75 | 116 | 1.7 | 1.7 | 0.00 | 0.00 | 0.00 | 87 | 1012.4 |
| 20260830151233 | 74 | 46 | 0.0 | 0.9 | 0.00 | 0.00 | 0.00 | 88 | 1012.1 |
| 20260830150728 | 74 | 68 | 0.0 | 1.7 | 0.00 | 0.00 | 0.00 | 88 | 1012.6 |
| 20260830150228 | 73 | 126 | 2.6 | 5.2 | 0.00 | 0.00 | 0.00 | 89 | 1012.4 |
| 20260830145723 | 73 | 333 | 1.7 | 2.6 | 0.00 | 0.00 | 0.00 | 89 | 1012.2 |
| 20260830145218 | 74 | 2 | 0.9 | 5.2 | 0.00 | 0.00 | 0.00 | 88 | 1012.3 |
| 20260830144713 | 73 | 50 | 1.7 | 2.6 | 0.00 | 0.00 | 0.00 | 89 | 1012.6 |
| 20260830144209 | 72 | 128 | 0.0 | 2.6 | 0.00 | 0.00 | 0.00 | 90 | 1012.5 |
| 20260830143705 | 72 | 147 | 0.0 | 1.7 | 0.00 | 0.00 | 0.00 | 91 | 1012.7 |
| 20260830143202 | 72 | 152 | 0.0 | 4.3 | 0.00 | 0.00 | 0.00 | 90 | 1012.3 |
| 20260830142658 | 72 | 339 | 1.7 | 2.6 | 0.00 | 0.00 | 0.00 | 90 | 1012.3 |
| 20260830142153 | 73 | 76 | 2.6 | 4.3 | 0.00 | 0.00 | 0.00 | 89 | 1012.7 |
| 20260830141648 | 73 | 127 | 0.0 | 2.6 | 0.00 | 0.00 | 0.00 | 89 | 1012.8 |
| 20260830141143 | 73 | 63 | 0.0 | 1.7 | 0.00 | 0.00 | 0.00 | 89 | 1013.0 |
| 20260830140638 | 71 | 55 | 0.0 | 4.3 | 0.00 | 0.00 | 0.00 | 91 | 1012.8 |
| 20260830140139 | 71 | 111 | 0.9 | 2.6 | 0.00 | 0.00 | 0.00 | 92 | 1012.8 |
| 20260830135634 | 70 | 92 | 0.0 | 1.7 | 0.00 | 0.00 | 0.00 | 94 | 1012.8 |
| 20260830135128 | 69 | 120 | 0.0 | 0.9 | 0.00 | 0.00 | 0.00 | 94 | 1012.9 |
| 20260830134625 | 69 | 333 | 2.6 | 4.3 | 0.00 | 0.00 | 0.00 | 95 | 1012.7 |
| 20260830134120 | 69 | 141 | 0.0 | 0.9 | 0.00 | 0.00 | 0.00 | 95 | 1012.7 |
| 20260830133615 | 68 | 259 | 0.9 | 4.3 | 0.00 | 0.00 | 0.00 | 96 | 1012.5 |
| 20260830133110 | 68 | 353 | 0.0 | 2.6 | 0.00 | 0.00 | 0.00 | 96 | 1012.4 |
| 20260830132607 | 68 | 43 | 1.7 | 1.7 | 0.00 | 0.00 | 0.00 | 97 | 1012.6 |
| 20260830132102 | 68 | 126 | 0.0 | 0.9 | 0.00 | 0.00 | 0.00 | 97 | 1012.6 |
| 20260830131601 | 67 | 58 | 0.9 | 4.3 | 0.00 | 0.00 | 0.00 | 98 | 1012.6 |
| 20260830131055 | 67 | 152 | 0.0 | 0.9 | 0.00 | 0.00 | 0.00 | 98 | 1012.9 |
| 20260830130550 | 67 | 114 | 0.9 | 2.6 | 0.00 | 0.00 | 0.00 | 98 | 1012.8 |
| 20260830130046 | 67 | 90 | 0.0 | 1.7 | 0.00 | 0.00 | 0.00 | 98 | 1012.8 |
| 20260830125540 | 67 | 59 | 0.9 | 4.3 | 0.00 | 0.00 | 0.00 | 98 | 1012.7 |
| 20260830125039 | 67 | 111 | 0.0 | 0.0 | 0.00 | 0.00 | 0.00 | 99 | 1013.1 |
| 20260830124538 | 67 | 258 | 0.9 | 5.2 | 0.00 | 0.00 | 0.00 | 99 | 1013.0 |
| 20260830124034 | 67 | 108 | 0.0 | 1.7 | 0.00 | 0.00 | 0.00 | 99 | 1012.8 |
| 20260830123531 | 67 | 137 | 0.9 | 1.7 | 0.00 | 0.00 | 0.00 | 99 | 1012.7 |
| 20260830123026 | 67 | 121 | 0.0 | 0.0 | 0.00 | 0.00 | 0.00 | 99 | 1012.4 |
| 20260830122522 | 66 | 82 | 0.0 | 0.0 | 0.00 | 0.00 | 0.00 | 99 | 1012.5 |
| 20260830122018 | 66 | 110 | 0.0 | 0.9 | 0.00 | 0.00 | 0.00 | 99 | 1012.7 |
| 20260830121514 | 66 | 103 | 0.0 | 1.7 | 0.00 | 0.00 | 0.00 | 99 | 1012.5 |
| 20260830121013 | 66 | 90 | 0.0 | 0.0 | 0.00 | 0.00 | 0.00 | 99 | 1012.5 |
| 20260830120509 | 66 | 35 | 0.0 | 1.7 | 0.00 | 0.00 | 0.00 | 99 | 1012.2 |
| 20260830120006 | 66 | 112 | 0.0 | 1.7 | 0.00 | 0.00 | 0.00 | 99 | 1012.4 |
| 20260830115501 | 66 | 23 | 0.0 | 2.6 | 0.00 | 0.00 | 0.00 | 99 | 1012.1 |
| 20260830114956 | 66 | 19 | 0.9 | 2.6 | 0.00 | 0.00 | 0.00 | 99 | 1012.1 |
| 20260830114453 | 66 | 99 | 0.0 | 0.0 | 0.00 | 0.00 | 0.00 | 99 | 1012.2 |
| 20260830113952 | 66 | 70 | 0.9 | 1.7 | 0.00 | 0.00 | 0.00 | 99 | 1012.2 |
| 20260830113447 | 66 | 22 | 0.0 | 0.0 | 0.00 | 0.00 | 0.00 | 99 | 1012.2 |
| 20260830112943 | 66 | 90 | 0.0 | 0.9 | 0.00 | 0.00 | 0.00 | 99 | 1012.4 |
| 20260830112439 | 66 | 104 | 0.0 | 0.0 | 0.00 | 0.00 | 0.00 | 99 | 1012.4 |
| 20260830111935 | 66 | 135 | 0.0 | 0.9 | 0.00 | 0.00 | 0.00 | 99 | 1012.2 |
| 20260830111430 | 66 | 50 | 0.9 | 2.6 | 0.00 | 0.00 | 0.00 | 99 | 1012.1 |
| 20260830110926 | 66 | 76 | 0.0 | 0.0 | 0.00 | 0.00 | 0.00 | 99 | 1012.4 |
| 20260830110421 | 66 | 87 | 0.0 | 0.9 | 0.00 | 0.00 | 0.00 | 98 | 1012.6 |
| 20260830105920 | 66 | 101 | 0.0 | 0.0 | 0.00 | 0.00 | 0.00 | 98 | 1012.6 |
| 20260830105417 | 66 | 84 | 0.0 | 0.0 | 0.00 | 0.00 | 0.00 | 98 | 1012.6 |
| 20260830104913 | 66 | 80 | 0.0 | 0.9 | 0.00 | 0.00 | 0.00 | 98 | 1012.6 |
| 20260830104409 | 66 | 0 | 0.0 | 0.9 | 0.00 | 0.00 | 0.00 | 98 | 1012.3 |
| 20260830103908 | 66 | 75 | 0.0 | 0.0 | 0.00 | 0.00 | 0.00 | 98 | 1012.5 |
| 20260830103404 | 66 | 78 | 0.0 | 0.9 | 0.00 | 0.00 | 0.00 | 98 | 1012.8 |
| 20260830102902 | 66 | 91 | 0.0 | 1.7 | 0.00 | 0.00 | 0.00 | 98 | 1012.7 |
| 20260830102358 | 66 | 106 | 0.0 | 0.0 | 0.00 | 0.00 | 0.00 | 98 | 1012.6 |
| 20260830101854 | 66 | 104 | 0.0 | 1.7 | 0.00 | 0.00 | 0.00 | 98 | 1012.5 |
| 20260830101349 | 66 | 52 | 0.0 | 0.0 | 0.00 | 0.00 | 0.00 | 98 | 1012.5 |
| 20260830100848 | 66 | 79 | 0.0 | 0.9 | 0.00 | 0.00 | 0.00 | 98 | 1012.3 |
| 20260830100348 | 66 | 105 | 0.0 | 0.0 | 0.00 | 0.00 | 0.00 | 98 | 1012.2 |
| 20260830095847 | 66 | 32 | 0.9 | 1.7 | 0.00 | 0.00 | 0.00 | 98 | 1012.2 |
| 20260830095343 | 66 | 109 | 0.0 | 0.9 | 0.00 | 0.00 | 0.00 | 98 | 1011.8 |
| 20260830094838 | 67 | 99 | 0.0 | 2.6 | 0.00 | 0.00 | 0.00 | 97 | 1012.1 |
| 20260830094335 | 67 | 93 | 0.0 | 0.0 | 0.00 | 0.00 | 0.00 | 97 | 1012.0 |
| 20260830093830 | 67 | 100 | 0.0 | 0.0 | 0.00 | 0.00 | 0.00 | 97 | 1012.2 |
| 20260830093325 | 67 | 111 | 0.0 | 0.9 | 0.00 | 0.00 | 0.00 | 97 | 1012.2 |
| 20260830092820 | 67 | 97 | 0.0 | 1.7 | 0.00 | 0.00 | 0.00 | 97 | 1012.5 |
| 20260830092316 | 67 | 97 | 0.0 | 1.7 | 0.00 | 0.00 | 0.00 | 97 | 1012.6 |
| 20260830091813 | 67 | 66 | 0.0 | 1.7 | 0.00 | 0.00 | 0.00 | 97 | 1012.7 |
| 20260830091312 | 67 | 79 | 0.0 | 0.9 | 0.00 | 0.00 | 0.00 | 97 | 1012.2 |
| 20260830090811 | 67 | 78 | 0.0 | 1.7 | 0.00 | 0.00 | 0.00 | 97 | 1012.3 |
| 20260830090307 | 67 | 64 | 0.0 | 1.7 | 0.00 | 0.00 | 0.00 | 97 | 1012.2 |
| 20260830085806 | 67 | 102 | 0.0 | 0.9 | 0.00 | 0.00 | 0.00 | 96 | 1012.4 |
| 20260830085302 | 67 | 90 | 0.0 | 0.9 | 0.00 | 0.00 | 0.00 | 96 | 1012.5 |
| 20260830084757 | 67 | 74 | 0.0 | 0.0 | 0.00 | 0.00 | 0.00 | 96 | 1012.5 |
| 20260830084253 | 67 | 102 | 0.0 | 0.0 | 0.00 | 0.00 | 0.00 | 96 | 1012.5 |
| 20260830083747 | 67 | 102 | 0.0 | 0.9 | 0.00 | 0.00 | 0.00 | 96 | 1012.7 |
| 20260830083244 | 67 | 62 | 0.0 | 0.9 | 0.00 | 0.00 | 0.00 | 96 | 1012.6 |
| 20260830082743 | 67 | 36 | 0.9 | 2.6 | 0.00 | 0.00 | 0.00 | 96 | 1012.2 |
| 20260830082238 | 68 | 90 | 0.0 | 1.7 | 0.00 | 0.00 | 0.00 | 96 | 1012.3 |
| 20260830081733 | 68 | 87 | 0.0 | 0.9 | 0.00 | 0.00 | 0.00 | 95 | 1012.2 |
| 20260830081228 | 68 | 53 | 0.0 | 1.7 | 0.00 | 0.00 | 0.00 | 95 | 1012.5 |
| 20260830080722 | 68 | 347 | 0.0 | 0.9 | 0.00 | 0.00 | 0.00 | 95 | 1012.6 |
| 20260830080218 | 68 | 102 | 0.0 | 0.9 | 0.00 | 0.00 | 0.00 | 95 | 1012.8 |
| 20260830075717 | 68 | 85 | 0.0 | 4.3 | 0.00 | 0.00 | 0.00 | 95 | 1012.9 |
| 20260830075213 | 68 | 89 | 0.0 | 0.0 | 0.00 | 0.00 | 0.00 | 95 | 1012.8 |
| 20260830074708 | 68 | 7 | 0.0 | 1.7 | 0.00 | 0.00 | 0.00 | 95 | 1013.0 |
| 20260830074204 | 68 | 139 | 0.0 | 1.7 | 0.00 | 0.00 | 0.00 | 95 | 1012.6 |
| 20260830073700 | 68 | 95 | 0.0 | 1.7 | 0.00 | 0.00 | 0.00 | 95 | 1012.6 |
| 20260830073156 | 68 | 103 | 0.0 | 0.0 | 0.00 | 0.00 | 0.00 | 95 | 1012.8 |
| 20260830072650 | 68 | 106 | 0.0 | 1.7 | 0.00 | 0.00 | 0.00 | 95 | 1012.9 |
| 20260830072150 | 68 | 63 | 0.0 | 0.0 | 0.00 | 0.00 | 0.00 | 95 | 1013.0 |
| 20260830071646 | 68 | 94 | 0.0 | 0.0 | 0.00 | 0.00 | 0.00 | 95 | 1012.8 |
| 20260830071144 | 68 | 100 | 0.0 | 0.9 | 0.00 | 0.00 | 0.00 | 94 | 1012.9 |
| 20260830070639 | 68 | 29 | 0.0 | 1.7 | 0.00 | 0.00 | 0.00 | 94 | 1012.7 |
| 20260830070133 | 68 | 99 | 0.0 | 2.6 | 0.00 | 0.00 | 0.00 | 94 | 1012.8 |
| 20260830065632 | 68 | 102 | 0.0 | 1.7 | 0.00 | 0.00 | 0.00 | 94 | 1012.7 |
| 20260830065131 | 68 | 47 | 0.0 | 0.0 | 0.00 | 0.00 | 0.00 | 94 | 1012.9 |
| 20260830064625 | 69 | 119 | 0.0 | 0.0 | 0.00 | 0.00 | 0.00 | 93 | 1013.0 |
| 20260830064120 | 69 | 9 | 0.9 | 0.9 | 0.00 | 0.00 | 0.00 | 93 | 1013.0 |
| 20260830063614 | 69 | 97 | 0.0 | 2.6 | 0.00 | 0.00 | 0.00 | 93 | 1012.9 |
| 20260830063114 | 69 | 72 | 0.0 | 0.9 | 0.00 | 0.00 | 0.00 | 93 | 1012.9 |
| 20260830062609 | 69 | 68 | 0.0 | 1.7 | 0.00 | 0.00 | 0.00 | 93 | 1013.3 |
| 20260830062103 | 69 | 96 | 0.0 | 0.9 | 0.00 | 0.00 | 0.00 | 94 | 1013.2 |
| 20260830061557 | 68 | 108 | 0.0 | 1.7 | 0.00 | 0.00 | 0.00 | 94 | 1013.3 |
| 20260830061054 | 68 | 47 | 0.0 | 0.9 | 0.00 | 0.00 | 0.00 | 94 | 1013.3 |
| 20260830060550 | 68 | 91 | 0.0 | 0.0 | 0.00 | 0.00 | 0.00 | 94 | 1013.5 |
| 20260830060046 | 69 | 353 | 0.9 | 0.9 | 0.00 | 0.00 | 0.00 | 94 | 1013.2 |
| 20260830055541 | 69 | 92 | 0.0 | 0.0 | 0.00 | 0.00 | 0.00 | 93 | 1013.3 |
| 20260830055037 | 69 | 93 | 0.0 | 0.0 | 0.00 | 0.00 | 0.00 | 93 | 1013.5 |
| 20260830054532 | 69 | 103 | 0.0 | 0.9 | 0.00 | 0.00 | 0.00 | 93 | 1013.2 |
| 20260830054028 | 69 | 39 | 0.0 | 0.0 | 0.00 | 0.00 | 0.00 | 93 | 1013.4 |
| 20260830053524 | 69 | 48 | 0.9 | 0.9 | 0.00 | 0.00 | 0.00 | 93 | 1013.3 |
| 20260830053023 | 69 | 140 | 0.0 | 1.7 | 0.00 | 0.00 | 0.00 | 93 | 1013.4 |
| 20260830052519 | 69 | 98 | 0.0 | 1.7 | 0.00 | 0.00 | 0.00 | 93 | 1013.4 |
| 20260830052018 | 69 | 100 | 0.9 | 0.9 | 0.00 | 0.00 | 0.00 | 93 | 1013.4 |
| 20260830051514 | 69 | 97 | 0.0 | 0.9 | 0.00 | 0.00 | 0.00 | 93 | 1013.3 |
| 20260830051009 | 69 | 46 | 0.9 | 1.7 | 0.00 | 0.00 | 0.00 | 93 | 1013.5 |
| 20260830050503 | 69 | 90 | 0.9 | 1.7 | 0.00 | 0.00 | 0.00 | 93 | 1013.6 |
| 20260830050002 | 69 | 72 | 0.0 | 1.7 | 0.00 | 0.33 | 0.33 | 93 | 1013.6 |
| 20260830045456 | 69 | 44 | 0.9 | 4.3 | 0.00 | 0.33 | 0.33 | 93 | 1013.6 |
| 20260830044956 | 69 | 63 | 1.7 | 1.7 | 0.00 | 0.33 | 0.33 | 93 | 1013.8 |
| 20260830044451 | 69 | 85 | 0.0 | 0.9 | 0.00 | 0.33 | 0.33 | 93 | 1013.7 |
| 20260830043946 | 69 | 81 | 0.0 | 0.0 | 0.00 | 0.33 | 0.33 | 93 | 1013.7 |
| 20260830043441 | 69 | 74 | 0.9 | 2.6 | 0.00 | 0.33 | 0.33 | 93 | 1013.7 |
| 20260830042939 | 69 | 83 | 0.0 | 0.0 | 0.00 | 0.33 | 0.33 | 93 | 1013.8 |
| 20260830042433 | 69 | 79 | 0.0 | 0.0 | 0.00 | 0.33 | 0.33 | 93 | 1014.0 |
| 20260830041932 | 69 | 7 | 0.0 | 0.9 | 0.00 | 0.33 | 0.33 | 93 | 1013.9 |
| 20260830041431 | 69 | 101 | 0.0 | 0.9 | 0.00 | 0.33 | 0.33 | 93 | 1013.7 |
| 20260830040926 | 69 | 96 | 0.0 | 1.7 | 0.00 | 0.33 | 0.33 | 93 | 1013.8 |
| 20260830040423 | 70 | 358 | 0.9 | 1.7 | 0.00 | 0.33 | 0.33 | 92 | 1013.9 |
| 20260830035921 | 70 | 78 | 0.9 | 1.7 | 0.00 | 0.33 | 0.33 | 92 | 1013.9 |
| 20260830035420 | 70 | 87 | 0.0 | 0.9 | 0.00 | 0.33 | 0.33 | 92 | 1013.8 |
| 20260830034916 | 70 | 35 | 0.0 | 0.9 | 0.00 | 0.33 | 0.33 | 92 | 1014.0 |
| 20260830034412 | 70 | 81 | 0.0 | 0.0 | 0.00 | 0.33 | 0.33 | 92 | 1014.0 |
| 20260830033906 | 70 | 77 | 0.9 | 1.7 | 0.00 | 0.33 | 0.33 | 92 | 1014.2 |
| 20260830033401 | 70 | 37 | 0.9 | 0.9 | 0.00 | 0.33 | 0.33 | 92 | 1014.1 |
| 20260830032857 | 70 | 78 | 0.0 | 1.7 | 0.00 | 0.33 | 0.33 | 92 | 1014.3 |
| 20260830032356 | 70 | 73 | 0.0 | 1.7 | 0.00 | 0.33 | 0.33 | 92 | 1014.0 |
| 20260830031851 | 70 | 122 | 0.9 | 2.6 | 0.00 | 0.33 | 0.33 | 92 | 1013.9 |
| 20260830031347 | 70 | 32 | 0.0 | 2.6 | 0.00 | 0.33 | 0.33 | 91 | 1014.1 |
| 20260830030842 | 70 | 81 | 1.7 | 1.7 | 0.00 | 0.33 | 0.33 | 91 | 1013.9 |
| 20260830030337 | 70 | 75 | 0.9 | 1.7 | 0.00 | 0.33 | 0.33 | 91 | 1014.2 |
| 20260830025836 | 71 | 86 | 0.0 | 1.7 | 0.00 | 0.33 | 0.33 | 91 | 1014.0 |
| 20260830025331 | 71 | 102 | 0.9 | 1.7 | 0.00 | 0.33 | 0.33 | 91 | 1013.7 |
| 20260830024830 | 71 | 93 | 0.9 | 2.6 | 0.00 | 0.33 | 0.33 | 91 | 1013.7 |
| 20260830024326 | 71 | 89 | 0.0 | 2.6 | 0.00 | 0.33 | 0.33 | 90 | 1013.9 |
| 20260830023823 | 71 | 54 | 0.9 | 0.9 | 0.00 | 0.33 | 0.33 | 90 | 1013.7 |
| 20260830023322 | 71 | 100 | 0.0 | 2.6 | 0.00 | 0.33 | 0.33 | 90 | 1013.8 |
| 20260830022821 | 71 | 119 | 0.0 | 0.0 | 0.00 | 0.33 | 0.33 | 90 | 1014.0 |
| 20260830022317 | 71 | 102 | 0.0 | 2.6 | 0.00 | 0.33 | 0.33 | 90 | 1013.8 |
| 20260830021816 | 71 | 130 | 1.7 | 4.3 | 0.00 | 0.33 | 0.33 | 90 | 1013.8 |
| 20260830021312 | 71 | 48 | 0.9 | 4.3 | 0.00 | 0.33 | 0.33 | 89 | 1013.7 |
| 20260830020811 | 72 | 124 | 0.0 | 2.6 | 0.00 | 0.33 | 0.33 | 89 | 1013.7 |
| 20260830020306 | 72 | 88 | 0.0 | 2.6 | 0.00 | 0.33 | 0.33 | 89 | 1013.6 |
| 20260830015801 | 72 | 2 | 2.6 | 2.6 | 0.00 | 0.33 | 0.33 | 88 | 1013.5 |
| 20260830015256 | 72 | 95 | 0.9 | 1.7 | 0.00 | 0.33 | 0.33 | 88 | 1013.5 |
| 20260830014751 | 72 | 41 | 0.9 | 1.7 | 0.00 | 0.33 | 0.33 | 88 | 1013.5 |
| 20260830014247 | 72 | 3 | 0.9 | 2.6 | 0.00 | 0.33 | 0.33 | 88 | 1013.2 |
| 20260830013743 | 72 | 92 | 1.7 | 2.6 | 0.00 | 0.33 | 0.33 | 88 | 1013.1 |
| 20260830013237 | 73 | 47 | 0.0 | 0.9 | 0.00 | 0.33 | 0.33 | 87 | 1013.5 |
| 20260830012732 | 73 | 6 | 0.0 | 5.2 | 0.00 | 0.33 | 0.33 | 87 | 1013.2 |
| 20260830012229 | 73 | 88 | 0.0 | 1.7 | 0.00 | 0.33 | 0.33 | 87 | 1013.1 |
| 20260830011724 | 73 | 8 | 2.6 | 2.6 | 0.00 | 0.33 | 0.33 | 86 | 1013.2 |
| 20260830011219 | 73 | 110 | 0.9 | 4.3 | 0.00 | 0.33 | 0.33 | 86 | 1012.9 |
| 20260830010715 | 73 | 49 | 0.9 | 5.2 | 0.00 | 0.33 | 0.33 | 86 | 1013.2 |
| 20260830010209 | 74 | 95 | 0.9 | 1.7 | 0.00 | 0.33 | 0.33 | 86 | 1013.2 |
| 20260830005708 | 74 | 87 | 2.6 | 5.2 | 0.00 | 0.33 | 0.33 | 86 | 1013.3 |
| 20260830005206 | 74 | 99 | 0.9 | 2.6 | 0.00 | 0.33 | 0.33 | 85 | 1013.2 |
| 20260830004701 | 74 | 75 | 0.0 | 2.6 | 0.00 | 0.33 | 0.33 | 85 | 1013.0 |
| 20260830004155 | 74 | 121 | 0.0 | 5.2 | 0.00 | 0.33 | 0.33 | 84 | 1013.1 |
| 20260830003650 | 75 | 214 | 0.9 | 1.7 | 0.00 | 0.33 | 0.33 | 84 | 1013.0 |
| 20260830003139 | 75 | 266 | 0.9 | 2.6 | 0.00 | 0.33 | 0.33 | 84 | 1012.9 |
| 20260830002637 | 75 | 136 | 0.9 | 1.7 | 0.00 | 0.33 | 0.33 | 83 | 1012.9 |